CW0288 Weather Reports


Display with metric or nautical units.
time (UTC)temp
F
wind
direction
speed
MPH
gust
MPH
rain 1hr
in
rain 24hr
in
rain mn
in
humidity
%
barometer
mb
20260504035430 56 220 11.0 16.0 0.00 0.00 0.00 40 1000.5
20260504034931 56 228 12.0 16.0 0.00 0.00 0.00 39 1000.6
20260504034430 56 227 11.0 16.0 0.00 0.00 0.00 40 1000.8
20260504033930 56 204 11.0 16.0 0.00 0.00 0.00 39 1000.9
20260504033431 56 212 11.0 16.0 0.00 0.00 0.00 40 1001.0
20260504032930 56 210 12.0 16.0 0.00 0.00 0.00 39 1001.1
20260504032430 56 219 9.0 14.0 0.00 0.00 0.00 40 1001.2
20260504031930 56 219 9.0 14.0 0.00 0.00 0.00 40 1001.3
20260504031429 56 227 9.0 14.0 0.00 0.00 0.00 39 1001.5
20260504030929 57 212 10.0 13.0 0.00 0.00 0.00 39 1001.6
20260504030429 56 221 9.0 11.0 0.00 0.00 0.00 39 1001.7
20260504025928 57 212 8.0 13.0 0.00 0.00 0.00 39 1001.9
20260504025428 57 230 8.0 13.0 0.00 0.00 0.00 39 1002.0
20260504025208 56 210 9.0 12.0 0.00 0.00 0.00 39 1002.1
20260504024425 56 224 9.0 12.0 0.00 0.00 0.00 41 1002.2
20260504023924 56 210 9.0 12.0 0.00 0.00 0.00 41 1002.2
20260504023425 56 214 9.0 11.0 0.00 0.00 0.00 43 1002.3
20260504022920 56 221 8.0 11.0 0.00 0.00 0.00 41 1002.4
20260504022418 56 235 6.0 10.0 0.00 0.00 0.00 43 1002.5
20260504021919 56 226 6.0 10.0 0.00 0.00 0.00 40 1002.5
20260504021418 56 221 6.0 9.0 0.00 0.00 0.00 40 1002.6
20260504020915 56 231 5.0 10.0 0.00 0.00 0.00 40 1002.6
20260504020415 56 240 7.0 10.0 0.00 0.00 0.00 41 1002.7
20260504015915 56 231 6.0 9.0 0.00 0.00 0.00 38 1002.8
20260504015415 57 241 5.0 9.0 0.00 0.00 0.00 37 1002.8
20260504014915 57 240 6.0 9.0 0.00 0.00 0.00 37 1002.8
20260504014725 57 235 6.0 9.0 0.00 0.00 0.00 37 1002.8
20260504013415 58 235 6.0 7.0 0.00 0.00 0.00 36 1003.0
20260504012912 58 241 6.0 6.0 0.00 0.00 0.00 35 1003.0
20260504012412 59 245 5.0 6.0 0.00 0.00 0.00 36 1003.1
20260504011913 59 235 4.0 6.0 0.00 0.00 0.00 35 1003.1
20260504011411 60 244 4.0 7.0 0.00 0.00 0.00 35 1003.2
20260504010910 60 261 5.0 7.0 0.00 0.00 0.00 33 1003.2
20260504010411 61 255 5.0 9.0 0.00 0.00 0.00 32 1003.2
20260504005909 61 255 6.0 9.0 0.00 0.00 0.00 31 1003.4
20260504005409 61 266 5.0 10.0 0.00 0.00 0.00 32 1003.5
20260504004909 61 278 6.0 10.0 0.00 0.00 0.00 32 1003.5
20260504004410 62 285 7.0 10.0 0.00 0.00 0.00 31 1003.4
20260504003909 62 292 7.0 15.0 0.00 0.00 0.00 29 1003.4
20260504003410 63 268 9.0 18.0 0.00 0.00 0.00 30 1003.5
20260504002909 63 269 12.0 18.0 0.00 0.00 0.00 27 1003.5
20260504002409 63 268 12.0 18.0 0.00 0.00 0.00 27 1003.4
20260504002150 64 272 11.0 19.0 0.00 0.00 0.00 27 1003.5
20260504001409 64 285 14.0 19.0 0.00 0.00 0.00 26 1003.4
20260504001151 64 288 7.0 17.0 0.00 0.00 0.00 28 1003.6
20260504000409 64 289 10.0 15.0 0.00 0.00 0.00 28 1003.6
20260503235908 64 266 10.0 20.0 0.00 0.00 0.00 29 1003.7
20260503235409 65 278 9.0 20.0 0.00 0.00 0.00 27 1003.7
20260503234908 65 295 12.0 18.0 0.00 0.00 0.00 27 1003.7
20260503234409 65 279 11.0 16.0 0.00 0.00 0.00 26 1003.7
20260503233907 66 252 12.0 16.0 0.00 0.00 0.00 24 1003.8
20260503233408 66 271 11.0 15.0 0.00 0.00 0.00 23 1003.8
20260503232907 66 275 10.0 17.0 0.00 0.00 0.00 23 1003.8
20260503232406 66 282 11.0 18.0 0.00 0.00 0.00 23 1003.9
20260503231907 67 281 12.0 18.0 0.00 0.00 0.00 22 1004.0
20260503231404 66 283 10.0 16.0 0.00 0.00 0.00 27 1004.2
20260503230905 66 264 11.0 16.0 0.00 0.00 0.00 27 1004.2
20260503230643 65 305 11.0 17.0 0.00 0.00 0.00 26 1004.1
20260503225902 65 282 11.0 17.0 0.00 0.00 0.00 26 1004.1
20260503225401 66 281 11.0 16.0 0.00 0.00 0.00 23 1004.2
20260503224902 66 259 7.0 22.0 0.00 0.00 0.00 22 1004.1
20260503224402 66 298 12.0 22.0 0.00 0.00 0.00 24 1004.1
20260503223902 66 300 12.0 19.0 0.00 0.00 0.00 23 1004.1
20260503223402 66 282 14.0 21.0 0.00 0.00 0.00 24 1004.2
20260503222902 67 314 15.0 21.0 0.00 0.00 0.00 23 1004.1
20260503222402 69 274 15.0 21.0 0.00 0.00 0.00 20 1004.1
20260503222153 69 286 8.0 20.0 0.00 0.00 0.00 23 1004.1
20260503221401 68 254 14.0 20.0 0.00 0.00 0.00 20 1004.2
20260503220900 69 288 12.0 20.0 0.00 0.00 0.00 21 1004.5
20260503220655 69 321 14.0 20.0 0.00 0.00 0.00 20 1004.2
20260503220153 69 281 14.0 19.0 0.00 0.00 0.00 23 1004.3
20260503215358 69 281 9.0 18.0 0.00 0.00 0.00 22 1004.5
20260503214858 69 300 12.0 20.0 0.00 0.00 0.00 24 1004.6
20260503214359 69 307 12.0 20.0 0.00 0.00 0.00 23 1004.6
20260503213854 69 258 9.0 18.0 0.00 0.00 0.00 26 1004.7
20260503213640 69 309 11.0 22.0 0.00 0.00 0.00 24 1004.7
20260503212854 69 305 17.0 22.0 0.00 0.00 0.00 21 1004.7
20260503212352 69 285 5.0 19.0 0.00 0.00 0.00 23 1004.8
20260503211850 69 278 9.0 19.0 0.00 0.00 0.00 22 1004.8
20260503211348 69 289 15.0 19.0 0.00 0.00 0.00 27 1004.8
20260503211141 69 262 9.0 19.0 0.00 0.00 0.00 21 1004.9
20260503210348 69 319 12.0 19.0 0.00 0.00 0.00 21 1005.0
20260503205847 69 324 13.0 18.0 0.00 0.00 0.00 23 1005.1
20260503205347 68 319 13.0 23.0 0.00 0.00 0.00 19 1005.1
20260503204847 68 321 18.0 24.0 0.00 0.00 0.00 24 1005.3
20260503204632 68 331 14.0 24.0 0.00 0.00 0.00 20 1005.3
20260503204132 69 313 10.0 22.0 0.00 0.00 0.00 22 1005.4
20260503203347 69 309 13.0 22.0 0.00 0.00 0.00 23 1005.4
20260503202846 69 238 7.0 14.0 0.00 0.00 0.00 23 1005.6
20260503202347 68 319 6.0 20.0 0.00 0.00 0.00 19 1005.7
20260503201846 68 0 11.0 24.0 0.00 0.00 0.00 22 1005.7
20260503201345 67 340 17.0 24.0 0.00 0.00 0.00 20 1005.8
20260503200847 68 292 18.0 24.0 0.00 0.00 0.00 24 1005.8
20260503200346 68 305 18.0 24.0 0.00 0.00 0.00 23 1005.8
20260503195845 68 306 11.0 18.0 0.00 0.00 0.00 24 1005.8
20260503195345 69 341 8.0 17.0 0.00 0.00 0.00 24 1006.0
20260503194842 68 265 12.0 18.0 0.00 0.00 0.00 23 1006.1
20260503194342 67 298 11.0 18.0 0.00 0.00 0.00 23 1006.0
20260503193842 67 348 9.0 20.0 0.00 0.00 0.00 24 1006.1
20260503193342 67 358 14.0 20.0 0.00 0.00 0.00 24 1006.1
20260503192843 67 292 12.0 19.0 0.00 0.00 0.00 24 1006.2
20260503192629 66 292 12.0 20.0 0.00 0.00 0.00 22 1006.2
20260503192127 66 327 12.0 22.0 0.00 0.00 0.00 26 1006.4
20260503191342 67 4 16.0 22.0 0.00 0.00 0.00 22 1006.4
20260503190842 65 316 10.0 21.0 0.00 0.00 0.00 26 1006.5
20260503190340 66 345 16.0 21.0 0.00 0.00 0.00 26 1006.5
20260503185839 66 334 12.0 18.0 0.00 0.00 0.00 22 1006.6
20260503185340 66 0 5.0 18.0 0.00 0.00 0.00 21 1006.7
20260503184837 65 302 13.0 23.0 0.00 0.00 0.00 23 1006.9
20260503184337 65 329 16.0 23.0 0.00 0.00 0.00 24 1006.9
20260503183836 65 353 12.0 23.0 0.00 0.00 0.00 26 1007.0
20260503183335 65 329 15.0 23.0 0.00 0.00 0.00 22 1006.9
20260503183123 65 0 14.0 21.0 0.00 0.00 0.00 23 1007.2
20260503182335 65 299 10.0 24.0 0.00 0.00 0.00 30 1007.3
20260503181836 64 326 17.0 24.0 0.00 0.00 0.00 23 1007.4
20260503181337 64 7 13.0 28.0 0.00 0.00 0.00 23 1007.3
20260503180834 64 345 16.0 28.0 0.00 0.00 0.00 28 1007.3
20260503180334 64 347 16.0 29.0 0.00 0.00 0.00 23 1007.6
20260503180121 64 344 20.0 29.0 0.00 0.00 0.00 22 1007.6
20260503175618 64 333 20.0 27.0 0.00 0.00 0.00 23 1007.6
20260503175119 64 0 19.0 27.0 0.00 0.00 0.00 22 1007.5
20260503174332 64 341 19.0 28.0 0.00 0.00 0.00 22 1007.5
20260503173831 62 347 16.0 28.0 0.00 0.00 0.00 19 1007.5
20260503173330 63 338 20.0 27.0 0.00 0.00 0.00 21 1007.5
20260503172830 63 351 19.0 27.0 0.00 0.00 0.00 24 1007.5
20260503172330 64 340 16.0 21.0 0.00 0.00 0.00 20 1007.6
20260503172115 64 0 13.0 21.0 0.00 0.00 0.00 23 1007.6
20260503171328 64 354 15.0 23.0 0.00 0.00 0.00 21 1007.7
20260503170830 63 336 15.0 24.0 0.00 0.00 0.00 21 1007.7
20260503170347 62 353 18.0 24.0 0.00 0.00 0.00 20 1007.7
20260503150828 60 317 14.0 21.0 0.00 0.00 0.00 46 1007.3
20260503150621 60 353 13.0 26.0 0.00 0.00 0.00 47 1007.3
20260503150135 59 0 18.0 26.0 0.00 0.00 0.00 46 1007.4
20260503131305 52 7 14.0 21.0 0.00 0.00 0.00 63 1006.8
20260503130803 52 0 12.0 20.0 0.00 0.00 0.00 63 1006.7
20260503130305 51 351 10.0 18.0 0.00 0.00 0.00 64 1006.7
20260503110803 44 355 11.0 17.0 0.00 0.00 0.00 75 1005.1
20260503110303 43 345 11.0 18.0 0.00 0.00 0.00 79 1005.1
20260503090254 40 41 2.0 3.0 0.00 0.00 0.00 79 1004.9
20260503081249 43 89 2.0 3.0 0.00 0.00 0.00 74 1005.0
20260503080750 42 86 2.0 4.0 0.00 0.00 0.00 74 1005.1
20260503080544 41 85 3.0 4.0 0.00 0.00 0.00 76 1005.1
20260503072749 46 138 2.0 4.0 0.00 0.00 0.00 67 1005.0
20260503072248 46 147 2.0 5.0 0.00 0.00 0.00 67 1005.2
20260503071748 47 147 4.0 6.0 0.00 0.00 0.00 65 1005.1
20260503071534 47 154 4.0 6.0 0.00 0.00 0.00 65 1005.0
20260503070746 47 134 5.0 6.0 0.00 0.00 0.00 65 1005.2
20260503070247 48 124 4.0 6.0 0.00 0.00 0.00 62 1005.2
20260503060242 48 61 7.0 13.0 0.00 0.00 0.00 65 1005.8
20260503054741 50 83 3.0 9.0 0.00 0.00 0.00 61 1005.7
20260503054528 51 173 5.0 10.0 0.00 0.00 0.00 58 1005.6
20260503054028 51 179 7.0 10.0 0.00 0.00 0.00 56 1005.6
20260503053529 51 168 8.0 10.0 0.00 0.00 0.00 56 1005.6
20260503052743 52 169 7.0 10.0 0.00 0.00 0.00 55 1005.7
20260503052243 53 186 7.0 12.0 0.00 0.00 0.00 54 1005.7
20260503051741 53 193 9.0 12.0 0.00 0.00 0.00 54 1005.7
20260503051241 53 180 9.0 13.0 0.00 0.00 0.00 53 1005.7
20260503050740 53 195 11.0 14.0 0.00 0.00 0.00 53 1005.8
20260503050240 53 176 10.0 14.0 0.00 0.00 0.00 53 1005.8
20260503045739 53 169 10.0 15.0 0.00 0.00 0.00 53 1005.9
20260503045240 53 178 10.0 15.0 0.00 0.00 0.00 54 1005.9
20260503044740 53 183 10.0 13.0 0.00 0.00 0.00 54 1005.9
20260503044526 53 175 10.0 13.0 0.00 0.00 0.00 54 1006.0
20260503044025 53 166 8.0 15.0 0.00 0.00 0.00 54 1005.9
20260503043239 53 171 11.0 18.0 0.00 0.00 0.00 54 1006.0
20260503042737 53 178 11.0 18.0 0.00 0.00 0.00 53 1006.0
20260503042523 54 171 11.0 19.0 0.00 0.00 0.00 53 1006.2
20260503041736 54 148 14.0 19.0 0.00 0.00 0.00 53 1006.2
20260503041236 54 168 11.0 15.0 0.00 0.00 0.00 53 1006.3
20260503040737 54 173 11.0 15.0 0.00 0.00 0.00 52 1006.4
20260503040236 54 145 11.0 15.0 0.00 0.00 0.00 52 1006.6